Location: Campillo
(40.8621°N, 4.2488°W)
Time: 12:02:22
(UTC+00:00)

USA 186 - Pass Details

Date: 11 May 2021
Orbit: 263 x 452 km, 96.9° (Epoch: 11 June)

Event Time Altitude Azimuth Distance (km) Brightness Sun altitude
Rises 20:05:17 0° 177° (S) 2,064 4.9 -7.7°
Reaches altitude 10° 20:07:15 10° 183° (S) 1,203 3.8 -8.0°
Maximum altitude 20:09:42 47° 260° (W) 409 2.1 -8.4°
Drops below altitude 10° 20:12:03 10° 336° (NNW) 1,142 4.9 -8.8°
Sets 20:13:52 0° 343° (NNW) 1,941 6.0 -9.1°
